Location: Walnut Hills Mobile Home Park
(34.0445°N, 117.8184°W)
Time: 02:58:32
(UTC+00:00)

Cosmos 1092 Rocket - Pass Details

Date: 17 December 2025
Orbit: 953 x 995 km, 83.0° (Epoch: 15 January)

Event Time Altitude Azimuth Distance (km) Brightness Sun altitude
Rises 12:09:24 0° 181° (S) 3,677 7.1 -32.5°
Reaches altitude 10° 12:11:55 10° 180° (S) 2,727 6.4 -32.0°
Maximum altitude 12:18:10 79° 94° (E) 994 4.0 -30.7°
Drops below altitude 10° 12:24:23 10° 9° (N) 2,713 6.3 -29.5°
Sets 12:26:52 0° 8° (N) 3,657 7.0 -29.0°
